Tracking 35275 objects as of 9-Sep-2026
HD Live streaming from Space Station
objects crossing your sky now

PSLV DEB


PSLV DEB is no longer on orbit


NORAD ID: 27290
Int'l Code: 2001-049JN
Launch date: October 22, 2001
Source: India (IND)
Launch site: SRIHARIKOTA (SRI)
Decay date: 2002-03-19

Note: This is SATELLITE DEBRIS
Your satellite tracking list
Your tracking list is empty




NASA's NSSDC Master Catalog

Two Line Element Set (TLE):
1 27290U 01049JN  02078.15592878 +.08152579 +11239-0 +31529-1 0  9990
2 27290 097.7436 157.4540 0016747 334.9850 025.0609 15.92618494010542
Source of the keplerian elements: AFSPC